GW7237 Weather Reports


time (UTC)temp
C
wind
direction
speed
KPH
gust
KPH
rain 1hr
cm
rain 24hr
cm
rain mn
cm
humidity
%
barometer
mb
20260504205515 20 289 1.6 6.4 0.00 0.00 0.00 24 1007.2
20260504205015 20 167 0.0 6.4 0.00 0.00 0.00 25 1007.2
20260504204516 20 305 1.6 16.1 0.00 0.00 0.00 27 1007.4
20260504204017 19 313 1.6 16.1 0.00 0.00 0.00 26 1007.4
20260504203512 19 280 1.6 14.5 0.00 0.00 0.00 25 1007.4
20260504203011 19 309 3.2 17.7 0.00 0.00 0.00 26 1007.5
20260504202507 19 335 1.6 17.7 0.00 0.00 0.00 28 1007.5
20260504202009 19 269 1.6 4.8 0.00 0.00 0.00 26 1007.6
20260504201507 19 223 1.6 6.4 0.00 0.00 0.00 26 1007.6
20260504201007 19 274 1.6 12.9 0.00 0.00 0.00 25 1007.6
20260504200507 19 53 0.0 12.9 0.00 0.00 0.00 25 1007.6
20260504200004 19 281 0.0 12.9 0.00 0.00 0.00 25 1007.6
20260504195505 19 267 1.6 12.9 0.00 0.00 0.00 25 1007.6
20260504194503 18 355 1.6 8.0 0.00 0.00 0.00 24 1007.6
20260504194003 18 349 1.6 12.9 0.00 0.00 0.00 24 1007.6
20260504193502 19 18 1.6 12.9 0.00 0.00 0.00 25 1007.6
20260504193005 18 343 1.6 11.3 0.00 0.00 0.00 25 1007.6
20260504192502 18 300 1.6 11.3 0.00 0.00 0.00 27 1007.6
20260504191502 18 284 1.6 14.5 0.00 0.00 0.00 26 1007.5
20260504190956 18 284 3.2 17.7 0.00 0.00 0.00 25 1007.4
20260504190450 19 289 3.2 17.7 0.00 0.00 0.00 26 1007.4
20260504185944 18 316 3.2 19.3 0.00 0.00 0.00 27 1007.4
20260504185438 18 295 1.6 19.3 0.00 0.00 0.00 25 1007.4
20260504184932 18 286 3.2 22.5 0.00 0.00 0.00 25 1007.4
20260504184428 18 281 4.8 22.5 0.00 0.00 0.00 24 1007.4
20260504183920 19 271 1.6 17.7 0.00 0.00 0.00 23 1007.5
20260504183414 19 283 0.0 11.3 0.00 0.00 0.00 22 1007.5
20260504182909 18 276 0.0 0.0 0.00 0.00 0.00 22 1007.5
20260504182409 18 276 0.0 0.0 0.00 0.00 0.00 22 1007.5
20260504181905 19 315 0.0 1.6 0.00 0.00 0.00 22 1007.6
20260504181406 20 315 0.0 1.6 0.00 0.00 0.00 21 1007.6
20260504180907 20 219 0.0 1.6 0.00 0.00 0.00 21 1007.7
20260504180407 20 256 0.0 3.2 0.00 0.00 0.00 23 1007.8
20260504175905 20 136 0.0 4.8 0.00 0.00 0.00 20 1007.8
20260504175403 20 286 1.6 14.5 0.00 0.00 0.00 20 1008.0
20260504174905 20 259 1.6 14.5 0.00 0.00 0.00 22 1008.1
20260504174403 20 312 1.6 4.8 0.00 0.00 0.00 22 1008.2
20260504173904 19 188 1.6 16.1 0.00 0.00 0.00 23 1008.2
20260504173402 19 290 1.6 16.1 0.00 0.00 0.00 22 1008.5
20260504172401 19 264 1.6 4.8 0.00 0.00 0.00 23 1008.5
20260504171402 19 205 1.6 8.0 0.00 0.00 0.00 21 1008.7
20260504170900 19 215 3.2 24.1 0.00 0.00 0.00 23 1008.9
20260504160242 18 274 3.2 22.5 0.00 0.00 0.00 26 1009.2
20260504150636 16 258 1.6 11.3 0.00 0.00 0.00 28 1009.8
20260504150131 16 290 1.6 14.5 0.00 0.00 0.00 28 1009.8
20260504141030 15 231 0.0 8.0 0.00 0.00 0.00 30 1009.5
20260504140524 15 219 0.0 6.4 0.00 0.00 0.00 29 1009.4
20260504130457 10 118 0.0 1.6 0.00 0.00 0.00 36 1009.3
20260504100316 6 246 0.0 0.0 0.00 0.00 0.00 48 1009.7
20260504081312 9 208 0.0 0.0 0.00 0.00 0.00 41 1010.5
20260504080812 9 208 0.0 0.0 0.00 0.00 0.00 42 1010.5
20260504080309 8 208 0.0 0.0 0.00 0.00 0.00 43 1010.5
20260504070221 11 209 0.0 0.0 0.00 0.00 0.00 39 1010.8
20260504060212 10 210 0.0 0.0 0.00 0.00 0.00 43 1011.1
20260504050637 12 198 0.0 1.6 0.00 0.00 0.00 36 1011.5
20260504050132 12 196 0.0 3.2 0.00 0.00 0.00 36 1011.5
20260504045625 12 210 0.0 3.2 0.00 0.00 0.00 36 1011.5
20260504045120 12 189 0.0 3.2 0.00 0.00 0.00 36 1011.5
20260504044614 12 185 0.0 3.2 0.00 0.00 0.00 36 1011.5
20260504044108 12 186 0.0 3.2 0.00 0.00 0.00 36 1011.6
20260504043602 12 142 0.0 0.0 0.00 0.00 0.00 36 1011.6
20260504043056 12 62 0.0 0.0 0.00 0.00 0.00 36 1011.7
20260504042550 12 62 0.0 0.0 0.00 0.00 0.00 36 1011.7
20260504041538 12 61 0.0 0.0 0.00 0.00 0.00 38 1011.9
20260504041033 12 61 0.0 0.0 0.00 0.00 0.00 39 1011.9
20260504040526 12 61 0.0 0.0 0.00 0.00 0.00 38 1011.9
20260504040021 12 61 0.0 0.0 0.00 0.00 0.00 38 1012.0
20260504035514 11 61 0.0 0.0 0.00 0.00 0.00 39 1012.0
20260504035008 11 61 0.0 0.0 0.00 0.00 0.00 40 1012.0
20260504034502 11 61 0.0 0.0 0.00 0.00 0.00 40 1012.0
20260504033451 11 61 0.0 1.6 0.00 0.00 0.00 42 1012.0
20260504032945 12 61 0.0 1.6 0.00 0.00 0.00 40 1011.9
20260504032438 12 61 0.0 1.6 0.00 0.00 0.00 37 1012.0
20260504031933 12 61 0.0 1.6 0.00 0.00 0.00 38 1011.9
20260504031426 12 62 0.0 1.6 0.00 0.00 0.00 38 1011.9
20260504030414 12 62 0.0 0.0 0.00 0.00 0.00 39 1011.9
20260504025402 13 62 0.0 0.0 0.00 0.00 0.00 38 1011.7
20260504024350 13 62 0.0 0.0 0.00 0.00 0.00 35 1011.7
20260504023844 13 62 0.0 0.0 0.00 0.00 0.00 35 1011.7
20260504023341 14 62 0.0 0.0 0.00 0.00 0.00 36 1011.7
20260504022838 14 62 0.0 0.0 0.00 0.00 0.00 33 1011.7
20260504022338 14 62 0.0 1.6 0.00 0.00 0.00 32 1011.6
20260504021336 15 62 0.0 1.6 0.00 0.00 0.00 31 1011.6
20260504020834 15 62 0.0 1.6 0.00 0.00 0.00 30 1011.5
20260504020334 15 62 0.0 1.6 0.00 0.00 0.00 30 1011.5
20260504015333 15 355 0.0 8.0 0.00 0.00 0.00 30 1011.4
20260504014832 16 19 0.0 8.0 0.00 0.00 0.00 29 1011.4
20260504014330 16 317 0.0 1.6 0.00 0.00 0.00 29 1011.4
20260504013833 16 300 0.0 1.6 0.00 0.00 0.00 28 1011.4
20260504013328 16 300 0.0 1.6 0.00 0.00 0.00 27 1011.2
20260504012827 16 300 0.0 8.0 0.00 0.00 0.00 26 1011.4
20260504012327 16 293 1.6 12.9 0.00 0.00 0.00 25 1011.4
20260504011825 17 311 3.2 14.5 0.00 0.00 0.00 25 1011.4
20260504011328 17 295 3.2 20.9 0.00 0.00 0.00 24 1011.5
20260504010826 17 313 3.2 20.9 0.00 0.00 0.00 24 1011.5
20260504010327 17 280 1.6 19.3 0.00 0.00 0.00 25 1011.5
20260504005315 17 298 3.2 14.5 0.00 0.00 0.00 26 1011.5
20260504004809 17 304 1.6 22.5 0.00 0.00 0.00 25 1011.4
20260504003251 17 19 0.0 0.0 0.00 0.00 0.00 24 1011.2
20260504002745 17 323 0.0 0.0 0.00 0.00 0.00 24 1011.1
20260504002240 18 287 0.0 0.0 0.00 0.00 0.00 23 1011.1
20260504001733 18 286 0.0 0.0 0.00 0.00 0.00 21 1011.1
20260504001228 18 306 0.0 0.0 0.00 0.00 0.00 21 1011.1
20260504000721 18 286 0.0 0.0 0.00 0.00 0.00 20 1011.1
20260504000215 18 39 0.0 0.0 0.00 0.00 0.00 20 1011.0
20260503235715 19 44 0.0 4.8 0.00 0.00 0.00 20 1011.1
20260503234215 19 46 0.0 3.2 0.00 0.00 0.00 19 1011.4
20260503233715 19 341 1.6 17.7 0.00 0.00 0.00 19 1011.2
20260503233215 19 281 1.6 17.7 0.00 0.00 0.00 17 1011.4
20260503232715 19 283 1.6 12.9 0.00 0.00 0.00 16 1011.2
20260503231713 20 255 1.6 9.7 0.00 0.00 0.00 16 1011.1
20260503231213 20 273 1.6 19.3 0.00 0.00 0.00 16 1011.1
20260503225711 20 286 1.6 17.7 0.00 0.00 0.00 16 1011.1
20260503225210 20 277 0.0 9.7 0.00 0.00 0.00 16 1011.1
20260503224705 20 260 0.0 9.7 0.00 0.00 0.00 16 1011.1
20260503224210 20 281 0.0 3.2 0.00 0.00 0.00 16 1011.1
20260503223710 20 281 0.0 6.4 0.00 0.00 0.00 18 1011.2
20260503223204 20 304 1.6 6.4 0.00 0.00 0.00 15 1011.2
20260503222658 21 270 1.6 12.9 0.00 0.00 0.00 16 1011.2
20260503222153 21 271 1.6 14.5 0.00 0.00 0.00 16 1011.2
20260503221647 21 34 3.2 27.4 0.00 0.00 0.00 16 1011.4
20260503221141 21 14 3.2 27.4 0.00 0.00 0.00 17 1011.5
20260503220640 21 194 1.6 20.9 0.00 0.00 0.00 16 1011.1
20260503220140 21 319 1.6 16.1 0.00 0.00 0.00 18 1011.6
20260503215641 21 292 3.2 16.1 0.00 0.00 0.00 17 1011.6
20260503215140 20 196 1.6 12.9 0.00 0.00 0.00 17 1011.7
20260503214638 20 315 1.6 11.3 0.00 0.00 0.00 16 1012.0
20260503214137 20 244 1.6 11.3 0.00 0.00 0.00 18 1012.0
20260503213637 20 158 1.6 11.3 0.00 0.00 0.00 16 1012.0
20260503212634 20 200 0.0 3.2 0.00 0.00 0.00 16 1012.1
20260503212134 20 167 0.0 4.8 0.00 0.00 0.00 15 1012.2
20260503211635 20 297 0.0 4.8 0.00 0.00 0.00 17 1012.2
20260503211131 20 258 1.6 11.3 0.00 0.00 0.00 15 1012.3
20260503210631 21 262 3.2 17.7 0.00 0.00 0.00 15 1012.5